Regional Weather Roundup
Issued by NWS Bismarck, ND

Home | Current Version | Previous Version | Text Only | Print | Product List | Glossary On
Versions: 1 2 3 4 5 6 7 8 9 10 11 12 13 14 15 16 17 18 19 20 21 22 23 24 25 26 27 28 29 30 31 32 33 34 35 36 37 38 39 40 41 42 43 44 45 46 47 48 49 50
000
ASUS43 KBIS 031702
RWRBIS

NWR BROADCAST TEXT
NATIONAL WEATHER SERVICE BISMARCK ND
1200 PM CDT TUE MAY 03 2016

NOTE: "FAIR" INDICATES FEW OR NO CLOUDS BELOW 12,000 FEET WITH NO
SIGNIFICANT WEATHER AND/OR OBSTRUCTIONS TO VISIBILITY.


CITY           SKY/WX    TMP DP  RH WIND       PRES   REMARKS
WILLISTON      SUNNY     75  37  25 N7        30.06S
MINOT          SUNNY     73  29  19 N17G24    30.01S
MINOT AFB      SUNNY     68  31  25 N14G20    30.01R
BISMARCK       SUNNY     71  38  29 NW15G24   30.00R
DICKINSON      SUNNY     72  33  24 N15       30.05R
GARRISON         N/A     71  35  26 N16G23    30.01R
HETTINGER ARPT SUNNY     71  32  23 N10       30.08S
JAMESTOWN      SUNNY     67  40  37 N21G28    29.91R
CARRINGTON     FAIR      66  30  26 N20G29    29.97R
HAZEN          FAIR      72  34  25 N14G23    30.03S
OAKES            N/A    N/A N/A N/A MISG        N/A
STANLEY        FAIR      72  32  23 N15       30.06S
$$

CITY           SKY/WX    TMP DP  RH WIND       PRES   REMARKS
GRAND FORKS    MOSUNNY   65  32  29 N28G39    29.88R
GRAND FORKS AF SUNNY     65  30  27 N22G31    29.90R
DEVILS LAKE    SUNNY     62  29  28 N24G31    29.96R
FARGO          SUNNY     72  32  23 N23G30    29.84S
CAVALIER       FAIR      61  32  33 N20G36    29.92R
GRAFTON        FAIR      63  32  31 N22G31    29.92R
GWINNER        FAIR      72  39  30 NW18G29   29.88F
LANGDON        FAIR      63  30  29 N23       29.95R
$$

CITY           SKY/WX    TMP DP  RH WIND       PRES   REMARKS
ABERDEEN       SUNNY     69  44  40 NW15      29.94F
MOBRIDGE       SUNNY     70  48  45 NW12      29.97F
BUFFALO          N/A     71  32  23 N16G23    30.04R
RAPID CITY     SUNNY     67  39  35 N14       30.11S
GLASGOW        SUNNY     72  42  34 W6        30.09S
SIDNEY         SUNNY     73  36  25 N7        30.08S
WOLF POINT     SUNNY     73  42  32 CALM      30.08S
GLENDIVE       SUNNY     70  39  32 CALM      30.12S
MILES CITY     SUNNY     69  43  38 CALM      30.11S
BAKER          SUNNY     70  35  27 NW12      30.12R
$$

CITY           SKY/WX    TMP DP  RH WIND       PRES   REMARKS
BILLINGS       MOSUNNY   63  38  39 S8        30.18R
GREAT FALLS    SUNNY     68  37  32 SW8       30.12F
$$





USA.gov is the U.S. government's official web portal to all federal, state and local government web resources and services.